Flag for Germany Weather past 2 weeks in Oelde, North Rhine-Westphalia, Germany

Now
73 °F

Sunny.


Feels Like: 77 °F
Forecast: 49 / 78 °F
Wind: 6 mph from North

Location: Paderborn / Lippstadt

Current Time: Aug 1, 2015 at 7:02:50 PM

Latest Report: Aug 1, 2015 at 6:20 PM


Visibility: 10 mi

Pressure: 29.95 "Hg

Humidity: 38%

Dew point: 46 °F

Location of OeldeLocation

Historic Weather in Oelde — Graph

°F

Oelde temperature yesterday

Maximum temperature yesterday: 63 °F (at 3:20 PM)
Minimum temperature yesterday: 43 °F (at 6:20 AM)
Average temperature yesterday: 53 °F

Past Weeks' High & Low Weather Summary

 TemperatureHumidityPressure
High86 °F (Jul 17, 5:20 PM)100% (Jul 19, 7:50 AM)30.15 "Hg (Jul 19, 7:50 AM)
Low43 °F (Jul 31, 6:20 AM)24% (Jul 17, 5:20 PM)29.53 "Hg (Jul 25, 9:50 AM)
Average61 °F71%29.89 "Hg
* Reported Jul 17 5:20 PM — Aug 1 5:50 PM, Oelde, Weather by CustomWeather, © 2015

Note: Actual official high and low records may vary slightly from our data, if they occured in-between our weather recording intervals... More about our weather records

Advertising

Oelde weather history for previous 24 hours

 ConditionsComfort  
Time TempWeatherWind HumidityBarometerVisibility
5:50 PM
Sat, Aug 1
73 °FPassing clouds.6 mph33%29.98 "HgN/A
5:20 PM73 °FPassing clouds.6 mph36%29.98 "HgN/A
4:50 PM73 °FSunny.3 mph38%29.95 "Hg10 mi
4:20 PM73 °FSunny.2 mph33%29.95 "Hg10 mi
3:50 PM73 °FSunny.3 mph36%29.98 "Hg10 mi
3:20 PM72 °FSunny.6 mph36%29.98 "Hg10 mi
2:50 PM72 °FSunny.6 mph38%29.98 "Hg10 mi
2:20 PM72 °FPassing clouds.6 mph38%29.98 "HgN/A
1:50 PM72 °FPassing clouds.7 mph41%29.98 "HgN/A
1:20 PM70 °FPassing clouds.6 mph43%29.98 "HgN/A
12:50 PM68 °FPassing clouds.7 mph40%29.98 "HgN/A
12:20 PM68 °FPassing clouds.6 mph46%30.01 "HgN/A
11:50 AM66 °FPassing clouds.7 mph49%30.01 "HgN/A
11:20 AM64 °FPassing clouds.8 mph49%30.01 "HgN/A
10:50 AM63 °FPassing clouds.9 mph49%30.01 "HgN/A
10:20 AM63 °FSunny.12 mph49%30.01 "Hg10 mi
9:50 AM61 °FPassing clouds.9 mph52%30.01 "HgN/A
9:20 AM59 °FSunny.10 mph51%30.01 "Hg10 mi
8:50 AM57 °FSunny.8 mph59%30.01 "Hg10 mi
8:20 AM55 °FSunny.8 mph59%30.01 "Hg10 mi
7:50 AM54 °FSunny.6 mph63%30.01 "Hg10 mi
7:20 AM52 °FSunny.7 mph62%30.01 "Hg10 mi
6:50 AM52 °FPassing clouds.7 mph62%30.01 "HgN/A
6:20 AM50 °FClear.5 mph67%30.01 "Hg10 mi
5:50 AM50 °FClear.5 mph67%30.01 "Hg10 mi
5:20 AM50 °FPassing clouds.5 mph67%30.01 "HgN/A
4:50 AM52 °FClear.5 mph62%30.01 "Hg10 mi
4:20 AM50 °FClear.6 mph67%30.04 "Hg10 mi
3:50 AM48 °FClear.6 mph76%30.04 "Hg10 mi
3:20 AM50 °FClear.7 mph71%30.04 "Hg10 mi
2:50 AM48 °FClear.7 mph76%30.04 "Hg10 mi
2:20 AM46 °FClear.6 mph82%30.04 "Hg10 mi
1:50 AM48 °FClear.5 mph76%30.07 "Hg10 mi
1:20 AM48 °FClear.6 mph76%30.07 "Hg10 mi
12:50 AM50 °FClear.6 mph71%30.07 "Hg10 mi
12:20 AM48 °FClear.5 mph76%30.07 "Hg10 mi
11:50 PM
Fri, Jul 31
50 °FClear.6 mph71%30.07 "Hg10 mi
11:20 PM48 °FClear.6 mph76%30.07 "Hg10 mi
10:50 PM50 °FClear.6 mph71%30.07 "Hg10 mi
10:20 PM52 °FClear.6 mph72%30.07 "Hg10 mi
9:50 PM52 °FSunny.2 mph62%30.07 "Hg10 mi
9:20 PM54 °FSunny.1 mph58%30.07 "Hg10 mi
8:50 PM57 °FSunny.2 mph51%30.07 "Hg10 mi
8:20 PM59 °FPassing clouds.3 mph45%30.07 "HgN/A
7:50 PM61 °FPassing clouds.3 mph42%30.07 "HgN/A
7:20 PM61 °FSunny.3 mph45%30.07 "Hg10 mi
Weather by CustomWeather, © 2015

See weather overviewHow to use our weather pages